Time,TemperatureF,DewpointF,PressureIn,WindDirection,WindDirectionDegrees,WindSpeedMPH,WindSpeedGustMPH,Humidity,HourlyPrecipIn,Conditions,Clouds,dailyrainin,SoftwareType,DateUTC
2013-10-07 00:03:00,65.3,46.2,30.17,NNE,22,0.0,0.0,50,0.00,,---,0.00,VWS V14.01,2013-10-07 05:03:00,
2013-10-07 00:08:00,65.1,46.0,30.17,NW,315,0.0,0.0,50,0.00,,---,0.00,VWS V14.01,2013-10-07 05:08:00,
2013-10-07 00:13:00,65.1,46.0,30.17,SW,225,0.0,0.0,50,0.00,,---,0.00,VWS V14.01,2013-10-07 05:13:00,
2013-10-07 00:18:00,64.9,46.4,30.17,SE,135,0.0,0.0,51,0.00,,---,0.00,VWS V14.01,2013-10-07 05:18:00,
2013-10-07 00:23:00,64.9,46.4,30.17,North,0,0.0,0.0,51,0.00,,---,0.00,VWS V14.01,2013-10-07 05:23:00,
2013-10-07 00:28:00,64.7,46.2,30.16,NNW,338,0.0,0.0,51,0.00,,---,0.00,VWS V14.01,2013-10-07 05:28:00,
2013-10-07 00:33:00,64.5,46.0,30.16,NNW,338,0.0,0.0,51,0.00,,---,0.00,VWS V14.01,2013-10-07 05:33:00,
2013-10-07 00:38:00,64.5,46.0,30.16,NW,315,0.0,0.0,51,0.00,,---,0.00,VWS V14.01,2013-10-07 05:38:00,
2013-10-07 00:43:00,64.2,45.7,30.16,North,0,0.0,0.0,51,0.00,,---,0.00,VWS V14.01,2013-10-07 05:43:00,
2013-10-07 00:48:00,64.2,45.7,30.16,North,0,0.0,0.0,51,0.00,,---,0.00,VWS V14.01,2013-10-07 05:48:00,
2013-10-07 00:53:00,64.0,45.5,30.16,NW,315,0.0,0.0,51,0.00,,---,0.00,VWS V14.01,2013-10-07 05:53:00,
2013-10-07 00:58:00,63.8,45.9,30.16,WNW,292,0.0,0.0,52,0.00,,---,0.00,VWS V14.01,2013-10-07 05:58:00,
2013-10-07 01:03:00,63.8,45.9,30.16,WSW,248,0.0,0.0,52,0.00,,---,0.00,VWS V14.01,2013-10-07 06:03:00,
2013-10-07 01:08:00,63.8,45.9,30.16,NE,45,0.0,0.0,52,0.00,,---,0.00,VWS V14.01,2013-10-07 06:08:00,
2013-10-07 01:13:00,63.6,46.2,30.16,SW,225,0.0,0.0,53,0.00,,---,0.00,VWS V14.01,2013-10-07 06:13:00,
2013-10-07 01:18:00,63.6,46.2,30.16,NNW,338,0.0,0.0,53,0.00,,---,0.00,VWS V14.01,2013-10-07 06:18:00,
2013-10-07 01:23:00,63.5,46.1,30.16,West,270,0.0,0.0,53,0.00,,---,0.00,VWS V14.01,2013-10-07 06:23:00,
2013-10-07 01:28:00,63.5,46.1,30.16,NNW,338,0.0,0.0,53,0.00,,---,0.00,VWS V14.01,2013-10-07 06:28:00,
2013-10-07 01:33:00,63.3,45.9,30.16,SW,225,0.0,0.0,53,0.00,,---,0.00,VWS V14.01,2013-10-07 06:33:00,
2013-10-07 01:38:00,63.1,45.7,30.16,North,0,0.0,0.0,53,0.00,,---,0.00,VWS V14.01,2013-10-07 06:38:00,
2013-10-07 01:43:00,63.1,45.7,30.16,NNE,22,0.0,0.0,53,0.00,,---,0.00,VWS V14.01,2013-10-07 06:43:00,
2013-10-07 01:48:00,63.1,45.2,30.16,WSW,248,0.0,0.0,52,0.00,,---,0.00,VWS V14.01,2013-10-07 06:48:00,
2013-10-07 01:53:00,63.1,45.7,30.16,SW,225,0.0,0.0,53,0.00,,---,0.00,VWS V14.01,2013-10-07 06:53:00,
2013-10-07 01:58:00,62.9,45.5,30.17,NNE,22,0.0,0.0,53,0.00,,---,0.00,VWS V14.01,2013-10-07 06:58:00,
2013-10-07 02:03:00,62.9,45.5,30.17,NE,45,0.0,0.0,53,0.00,,---,0.00,VWS V14.01,2013-10-07 07:03:00,
2013-10-07 02:08:00,62.6,45.2,30.17,ENE,68,0.0,0.0,53,0.00,,---,0.00,VWS V14.01,2013-10-07 07:08:00,
2013-10-07 02:13:00,62.4,45.1,30.17,NE,45,0.0,0.0,53,0.00,,---,0.00,VWS V14.01,2013-10-07 07:13:00,
2013-10-07 02:18:00,62.2,45.4,30.17,NNE,22,0.0,0.0,54,0.00,,---,0.00,VWS V14.01,2013-10-07 07:18:00,
2013-10-07 02:23:00,62.0,45.2,30.17,North,0,0.0,0.0,54,0.00,,---,0.00,VWS V14.01,2013-10-07 07:23:00,
2013-10-07 02:28:00,61.8,45.5,30.17,NW,315,0.0,0.0,55,0.00,,---,0.00,VWS V14.01,2013-10-07 07:28:00,
2013-10-07 02:33:00,61.5,45.7,30.17,North,0,0.0,0.0,56,0.00,,---,0.00,VWS V14.01,2013-10-07 07:33:00,
2013-10-07 02:38:00,61.3,45.5,30.17,NW,315,0.0,0.0,56,0.00,,---,0.00,VWS V14.01,2013-10-07 07:38:00,
2013-10-07 02:43:00,61.1,45.8,30.17,West,270,0.0,0.0,57,0.00,,---,0.00,VWS V14.01,2013-10-07 07:43:00,
2013-10-07 02:49:00,60.9,45.6,30.17,NE,45,0.0,0.0,57,0.00,,---,0.00,VWS V14.01,2013-10-07 07:49:00,
2013-10-07 02:54:00,60.6,45.3,30.17,NE,45,0.0,0.0,57,0.00,,---,0.00,VWS V14.01,2013-10-07 07:54:00,
2013-10-07 02:59:00,60.4,45.6,30.17,NE,45,0.0,0.0,58,0.00,,---,0.00,VWS V14.01,2013-10-07 07:59:00,
2013-10-07 03:04:00,60.2,45.8,30.17,NW,315,0.0,0.0,59,0.00,,---,0.00,VWS V14.01,2013-10-07 08:04:00,
2013-10-07 03:09:00,60.2,45.8,30.17,WNW,292,0.0,0.0,59,0.00,,---,0.00,VWS V14.01,2013-10-07 08:09:00,
2013-10-07 03:14:00,59.9,45.5,30.17,North,0,0.0,0.0,59,0.00,,---,0.00,VWS V14.01,2013-10-07 08:14:00,
2013-10-07 03:19:00,59.9,46.0,30.17,West,270,0.0,0.0,60,0.00,,---,0.00,VWS V14.01,2013-10-07 08:19:00,
2013-10-07 03:24:00,59.7,46.2,30.17,WNW,292,0.0,0.0,61,0.00,,---,0.00,VWS V14.01,2013-10-07 08:24:00,
2013-10-07 03:29:00,59.7,46.7,30.17,SSW,202,0.0,0.0,62,0.00,,---,0.00,VWS V14.01,2013-10-07 08:29:00,
2013-10-07 03:34:00,59.5,46.5,30.17,SSW,202,0.0,0.0,62,0.00,,---,0.00,VWS V14.01,2013-10-07 08:34:00,
2013-10-07 03:39:00,59.5,46.5,30.17,SW,225,0.0,0.0,62,0.00,,---,0.00,VWS V14.01,2013-10-07 08:39:00,
2013-10-07 03:44:00,59.5,46.9,30.17,SW,225,0.0,0.0,63,0.00,,---,0.00,VWS V14.01,2013-10-07 08:44:00,
2013-10-07 03:49:00,59.7,47.1,30.16,NNW,338,0.0,0.0,63,0.00,,---,0.00,VWS V14.01,2013-10-07 08:49:00,
2013-10-07 03:54:00,59.7,47.1,30.16,NW,315,0.0,0.0,63,0.00,,---,0.00,VWS V14.01,2013-10-07 08:54:00,
2013-10-07 03:59:00,59.9,46.9,30.16,West,270,0.0,0.0,62,0.00,,---,0.00,VWS V14.01,2013-10-07 08:59:00,
2013-10-07 04:04:00,59.9,46.9,30.16,WSW,248,0.0,0.0,62,0.00,,---,0.00,VWS V14.01,2013-10-07 09:04:00,
2013-10-07 04:09:00,59.9,46.4,30.16,SSW,202,0.0,0.0,61,0.00,,---,0.00,VWS V14.01,2013-10-07 09:09:00,
2013-10-07 04:14:00,60.2,46.7,30.16,West,270,0.0,0.0,61,0.00,,---,0.00,VWS V14.01,2013-10-07 09:14:00,
2013-10-07 04:19:00,60.2,46.7,30.16,NNE,22,0.0,0.0,61,0.00,,---,0.00,VWS V14.01,2013-10-07 09:19:00,
2013-10-07 04:24:00,59.9,46.4,30.16,NNW,338,0.0,0.0,61,0.00,,---,0.00,VWS V14.01,2013-10-07 09:24:00,
2013-10-07 04:29:00,60.0,46.5,30.16,West,270,0.0,0.0,61,0.00,,---,0.00,VWS V14.01,2013-10-07 09:29:00,
2013-10-07 04:34:00,60.2,46.7,30.16,SW,225,0.0,0.0,61,0.00,,---,0.00,VWS V14.01,2013-10-07 09:34:00,
2013-10-07 04:39:00,60.2,46.7,30.16,WSW,248,0.0,0.0,61,0.00,,---,0.00,VWS V14.01,2013-10-07 09:39:00,
2013-10-07 04:44:00,60.4,46.9,30.16,North,0,0.0,0.0,61,0.00,,---,0.00,VWS V14.01,2013-10-07 09:44:00,
2013-10-07 04:49:00,60.4,46.9,30.16,WSW,248,0.0,0.0,61,0.00,,---,0.00,VWS V14.01,2013-10-07 09:49:00,
2013-10-07 04:54:00,60.4,46.9,30.17,NW,315,0.0,0.0,61,0.00,,---,0.00,VWS V14.01,2013-10-07 09:54:00,
2013-10-07 04:59:00,60.4,46.9,30.17,West,270,0.0,0.0,61,0.00,,---,0.00,VWS V14.01,2013-10-07 09:59:00,
2013-10-07 05:04:00,60.2,46.3,30.17,NNE,22,0.0,0.0,60,0.00,,---,0.00,VWS V14.01,2013-10-07 10:04:00,
2013-10-07 05:09:00,60.2,46.3,30.17,NNE,22,0.0,0.0,60,0.00,,---,0.00,VWS V14.01,2013-10-07 10:09:00,
2013-10-07 05:14:00,60.2,46.3,30.17,NNW,338,0.0,0.0,60,0.00,,---,0.00,VWS V14.01,2013-10-07 10:14:00,
2013-10-07 05:19:00,60.2,46.3,30.17,West,270,0.0,0.0,60,0.00,,---,0.00,VWS V14.01,2013-10-07 10:19:00,
2013-10-07 05:24:00,60.2,46.3,30.17,West,270,0.0,0.0,60,0.00,,---,0.00,VWS V14.01,2013-10-07 10:24:00,
2013-10-07 05:29:00,60.2,46.3,30.17,NE,45,0.0,0.0,60,0.00,,---,0.00,VWS V14.01,2013-10-07 10:29:00,
2013-10-07 05:34:00,60.0,46.1,30.17,NNE,22,0.0,0.0,60,0.00,,---,0.00,VWS V14.01,2013-10-07 10:34:00,
2013-10-07 05:40:00,60.2,46.3,30.17,West,270,0.0,0.0,60,0.00,,---,0.00,VWS V14.01,2013-10-07 10:40:00,
2013-10-07 05:45:00,59.9,46.0,30.17,NNE,22,0.0,0.0,60,0.00,,---,0.00,VWS V14.01,2013-10-07 10:45:00,
2013-10-07 05:50:00,59.9,46.4,30.18,West,270,0.0,0.0,61,0.00,,---,0.00,VWS V14.01,2013-10-07 10:50:00,
2013-10-07 05:55:00,59.7,45.8,30.18,West,270,0.0,0.0,60,0.00,,---,0.00,VWS V14.01,2013-10-07 10:55:00,
2013-10-07 06:00:00,59.7,46.7,30.18,SW,225,0.0,0.0,62,0.00,,---,0.00,VWS V14.01,2013-10-07 11:00:00,
2013-10-07 06:05:00,59.7,46.7,30.18,WSW,248,0.0,0.0,62,0.00,,---,0.00,VWS V14.01,2013-10-07 11:05:00,
2013-10-07 06:10:00,59.5,46.9,30.18,West,270,0.0,0.0,63,0.00,,---,0.00,VWS V14.01,2013-10-07 11:10:00,
2013-10-07 06:15:00,59.5,46.9,30.18,West,270,0.0,0.0,63,0.00,,---,0.00,VWS V14.01,2013-10-07 11:15:00,
2013-10-07 06:20:00,59.3,46.7,30.18,West,270,0.0,0.0,63,0.00,,---,0.00,VWS V14.01,2013-10-07 11:20:00,
2013-10-07 06:25:00,59.1,46.5,30.18,West,270,0.0,0.0,63,0.00,,---,0.00,VWS V14.01,2013-10-07 11:25:00,
2013-10-07 06:30:00,59.1,46.5,30.18,West,270,0.0,0.0,63,0.00,,---,0.00,VWS V14.01,2013-10-07 11:30:00,
2013-10-07 06:35:00,59.1,46.5,30.18,NW,315,0.0,0.0,63,0.00,,---,0.00,VWS V14.01,2013-10-07 11:35:00,
2013-10-07 06:40:00,58.8,46.2,30.18,NW,315,0.0,0.0,63,0.00,,---,0.00,VWS V14.01,2013-10-07 11:40:00,
2013-10-07 06:45:00,58.6,46.1,30.19,NW,315,0.0,0.0,63,0.00,,---,0.00,VWS V14.01,2013-10-07 11:45:00,
2013-10-07 06:50:00,58.6,46.1,30.19,NW,315,0.0,0.0,63,0.00,,---,0.00,VWS V14.01,2013-10-07 11:50:00,
2013-10-07 06:55:00,58.6,46.1,30.19,NW,315,0.0,0.0,63,0.00,,---,0.00,VWS V14.01,2013-10-07 11:55:00,
2013-10-07 07:00:00,58.8,46.2,30.19,WNW,292,0.0,0.0,63,0.00,,---,0.00,VWS V14.01,2013-10-07 12:00:00,
2013-10-07 07:05:00,58.6,46.1,30.19,NNE,22,0.0,0.0,63,0.00,,---,0.00,VWS V14.01,2013-10-07 12:05:00,
2013-10-07 07:10:00,58.6,46.5,30.19,NW,315,0.0,0.0,64,0.00,,---,0.00,VWS V14.01,2013-10-07 12:10:00,
2013-10-07 07:15:00,58.6,46.5,30.19,West,270,0.0,0.0,64,0.00,,---,0.00,VWS V14.01,2013-10-07 12:15:00,
2013-10-07 07:20:00,58.4,46.3,30.19,WNW,292,0.0,0.0,64,0.00,,---,0.00,VWS V14.01,2013-10-07 12:20:00,
2013-10-07 07:25:00,58.4,46.7,30.20,West,270,0.0,0.0,65,0.00,,---,0.00,VWS V14.01,2013-10-07 12:25:00,
2013-10-07 07:30:00,58.4,46.7,30.20,West,270,0.0,0.0,65,0.00,,---,0.00,VWS V14.01,2013-10-07 12:30:00,
2013-10-07 07:35:00,58.4,46.7,30.20,West,270,0.0,0.0,65,0.00,,---,0.00,VWS V14.01,2013-10-07 12:35:00,
2013-10-07 07:40:00,58.4,46.7,30.20,West,270,0.0,0.0,65,0.00,,---,0.00,VWS V14.01,2013-10-07 12:40:00,
2013-10-07 07:45:00,58.4,46.7,30.21,West,270,0.0,0.0,65,0.00,,---,0.00,VWS V14.01,2013-10-07 12:45:00,
2013-10-07 07:50:00,58.4,46.7,30.21,West,270,0.0,0.0,65,0.00,,---,0.00,VWS V14.01,2013-10-07 12:50:00,
2013-10-07 07:55:00,58.4,46.7,30.21,West,270,0.0,0.0,65,0.00,,---,0.00,VWS V14.01,2013-10-07 12:55:00,
2013-10-07 08:01:00,58.6,46.9,30.21,WSW,248,0.0,0.0,65,0.00,,---,0.00,VWS V14.01,2013-10-07 13:01:00,
2013-10-07 08:06:00,58.6,46.9,30.21,WSW,248,0.0,0.0,65,0.00,,---,0.00,VWS V14.01,2013-10-07 13:06:00,
2013-10-07 08:11:00,58.8,47.1,30.21,WNW,292,0.0,0.0,65,0.00,,---,0.00,VWS V14.01,2013-10-07 13:11:00,
2013-10-07 08:16:00,59.1,47.4,30.22,West,270,0.0,0.0,65,0.00,,---,0.00,VWS V14.01,2013-10-07 13:16:00,
2013-10-07 08:21:00,59.3,47.5,30.22,West,270,0.0,0.0,65,0.00,,---,0.00,VWS V14.01,2013-10-07 13:21:00,
2013-10-07 08:26:00,59.5,47.3,30.22,West,270,0.0,0.0,64,0.00,,---,0.00,VWS V14.01,2013-10-07 13:26:00,
2013-10-07 08:31:00,59.7,47.5,30.22,North,0,0.0,0.0,64,0.00,,---,0.00,VWS V14.01,2013-10-07 13:31:00,
2013-10-07 08:36:00,59.9,46.9,30.22,West,270,0.0,0.0,62,0.00,,---,0.00,VWS V14.01,2013-10-07 13:36:00,
2013-10-07 08:41:00,60.2,47.2,30.22,NW,315,0.0,0.0,62,0.00,,---,0.00,VWS V14.01,2013-10-07 13:41:00,
2013-10-07 08:46:00,60.2,47.2,30.23,WNW,292,0.0,0.0,62,0.00,,---,0.00,VWS V14.01,2013-10-07 13:46:00,
2013-10-07 08:51:00,60.6,47.5,30.23,North,0,0.0,0.0,62,0.00,,---,0.00,VWS V14.01,2013-10-07 13:51:00,
2013-10-07 08:56:00,60.8,47.7,30.23,NNE,22,0.0,0.0,62,0.00,,---,0.00,VWS V14.01,2013-10-07 13:56:00,
2013-10-07 09:01:00,60.9,47.8,30.23,NNE,22,0.0,0.0,62,0.00,,---,0.00,VWS V14.01,2013-10-07 14:01:00,
2013-10-07 09:06:00,61.3,48.2,30.23,NNE,22,0.0,0.0,62,0.00,,---,0.00,VWS V14.01,2013-10-07 14:06:00,
2013-10-07 09:11:00,61.7,48.6,30.23,NW,315,0.0,0.0,62,0.00,,---,0.00,VWS V14.01,2013-10-07 14:11:00,
2013-10-07 09:16:00,62.0,48.0,30.23,NNW,338,0.0,0.0,60,0.00,,---,0.00,VWS V14.01,2013-10-07 14:16:00,
2013-10-07 09:21:00,62.0,47.5,30.23,NNW,338,1.3,1.3,59,0.00,,---,0.00,VWS V14.01,2013-10-07 14:21:00,
2013-10-07 09:26:00,62.6,48.1,30.23,NNW,338,0.0,0.0,59,0.00,,---,0.00,VWS V14.01,2013-10-07 14:26:00,
2013-10-07 09:31:00,62.9,48.4,30.23,NNE,22,0.0,0.0,59,0.00,,---,0.00,VWS V14.01,2013-10-07 14:31:00,
2013-10-07 09:36:00,63.3,48.7,30.24,NNW,338,0.0,0.0,59,0.00,,---,0.00,VWS V14.01,2013-10-07 14:36:00,
2013-10-07 09:41:00,63.5,48.5,30.24,NW,315,0.0,0.0,58,0.00,,---,0.00,VWS V14.01,2013-10-07 14:41:00,
2013-10-07 09:46:00,64.0,48.5,30.24,NNW,338,0.0,0.0,57,0.00,,---,0.00,VWS V14.01,2013-10-07 14:46:00,
2013-10-07 09:51:00,64.2,48.7,30.24,NNE,22,0.0,0.0,57,0.00,,---,0.00,VWS V14.01,2013-10-07 14:51:00,
2013-10-07 09:56:00,64.7,49.1,30.24,NNE,22,0.0,0.0,57,0.00,,---,0.00,VWS V14.01,2013-10-07 14:56:00,
2013-10-07 10:01:00,65.3,49.2,30.24,ESE,112,0.0,0.0,56,0.00,,---,0.00,VWS V14.01,2013-10-07 15:01:00,
2013-10-07 10:06:00,65.6,49.0,30.24,North,0,0.0,0.0,55,0.00,,---,0.00,VWS V14.01,2013-10-07 15:06:00,
2013-10-07 10:11:00,66.0,48.9,30.24,North,0,0.0,0.0,54,0.00,,---,0.00,VWS V14.01,2013-10-07 15:11:00,
2013-10-07 10:16:00,66.5,48.9,30.24,NNE,22,4.4,4.4,53,0.00,,---,0.00,VWS V14.01,2013-10-07 15:16:00,
2013-10-07 10:21:00,66.9,48.7,30.24,NE,45,0.0,0.0,52,0.00,,---,0.00,VWS V14.01,2013-10-07 15:21:00,
2013-10-07 10:26:00,67.4,48.7,30.24,South,180,0.0,0.0,51,0.00,,---,0.00,VWS V14.01,2013-10-07 15:26:00,
2013-10-07 10:31:00,67.6,48.3,30.24,NNE,22,2.4,2.4,50,0.00,,---,0.00,VWS V14.01,2013-10-07 15:31:00,
2013-10-07 10:36:00,68.1,48.2,30.24,NW,315,0.0,0.0,49,0.00,,---,0.00,VWS V14.01,2013-10-07 15:36:00,
2013-10-07 10:41:00,68.3,48.4,30.24,NNW,338,5.5,5.5,49,0.00,,---,0.00,VWS V14.01,2013-10-07 15:41:00,
2013-10-07 10:46:00,68.7,48.2,30.24,NE,45,0.0,0.0,48,0.00,,---,0.00,VWS V14.01,2013-10-07 15:46:00,
2013-10-07 10:52:00,68.9,47.9,30.24,NNW,338,2.4,2.4,47,0.00,,---,0.00,VWS V14.01,2013-10-07 15:52:00,
2013-10-07 10:57:00,69.2,48.1,30.24,NNE,22,0.0,0.0,47,0.00,,---,0.00,VWS V14.01,2013-10-07 15:57:00,
2013-10-07 11:02:00,69.4,48.3,30.24,WNW,292,0.0,0.0,47,0.00,,---,0.00,VWS V14.01,2013-10-07 16:02:00,
2013-10-07 11:07:00,69.9,48.8,30.24,North,0,2.2,2.2,47,0.00,,---,0.00,VWS V14.01,2013-10-07 16:07:00,
2013-10-07 11:12:00,70.1,48.4,30.24,North,0,0.0,0.0,46,0.00,,---,0.00,VWS V14.01,2013-10-07 16:12:00,
2013-10-07 11:17:00,70.3,48.6,30.24,North,0,0.0,0.0,46,0.00,,---,0.00,VWS V14.01,2013-10-07 16:17:00,
2013-10-07 11:22:00,70.7,48.3,30.23,East,90,0.0,0.0,45,0.00,,---,0.00,VWS V14.01,2013-10-07 16:22:00,
2013-10-07 11:27:00,70.8,47.8,30.23,NE,45,1.5,1.5,44,0.00,,---,0.00,VWS V14.01,2013-10-07 16:27:00,
2013-10-07 11:32:00,71.2,48.2,30.23,North,0,0.0,0.0,44,0.00,,---,0.00,VWS V14.01,2013-10-07 16:32:00,
2013-10-07 11:37:00,71.4,47.8,30.23,North,0,0.0,0.0,43,0.00,,---,0.00,VWS V14.01,2013-10-07 16:37:00,
2013-10-07 11:42:00,71.7,48.0,30.23,NNE,22,0.0,0.0,43,0.00,,---,0.00,VWS V14.01,2013-10-07 16:42:00,
2013-10-07 11:47:00,71.9,48.2,30.23,NE,45,3.1,3.1,43,0.00,,---,0.00,VWS V14.01,2013-10-07 16:47:00,
2013-10-07 11:52:00,72.1,48.4,30.23,NNE,22,1.7,1.7,43,0.00,,---,0.00,VWS V14.01,2013-10-07 16:52:00,
2013-10-07 11:57:00,72.3,48.6,30.23,NNE,22,0.0,0.0,43,0.00,,---,0.00,VWS V14.01,2013-10-07 16:57:00,
2013-10-07 12:02:00,72.5,48.1,30.23,NE,45,1.1,1.1,42,0.00,,---,0.00,VWS V14.01,2013-10-07 17:02:00,
2013-10-07 12:07:00,72.8,47.8,30.23,ESE,112,0.0,0.0,41,0.00,,---,0.00,VWS V14.01,2013-10-07 17:07:00,
2013-10-07 12:12:00,73.0,47.9,30.23,North,0,0.0,0.0,41,0.00,,---,0.00,VWS V14.01,2013-10-07 17:12:00,
2013-10-07 12:18:00,73.0,47.9,30.23,NNE,22,0.0,0.0,41,0.00,,---,0.00,VWS V14.01,2013-10-07 17:18:00,
2013-10-07 12:23:00,73.5,48.4,30.23,NW,315,2.4,2.4,41,0.00,,---,0.00,VWS V14.01,2013-10-07 17:23:00,
2013-10-07 12:28:00,73.5,48.4,30.22,NNE,22,0.0,0.0,41,0.00,,---,0.00,VWS V14.01,2013-10-07 17:28:00,
2013-10-07 12:33:00,73.7,48.6,30.23,NNW,338,0.0,0.0,41,0.00,,---,0.00,VWS V14.01,2013-10-07 17:33:00,
2013-10-07 12:38:00,73.9,48.7,30.22,NNE,22,1.7,1.7,41,0.00,,---,0.00,VWS V14.01,2013-10-07 17:38:00,
2013-10-07 12:43:00,74.1,48.3,30.23,West,270,3.1,3.1,40,0.00,,---,0.00,VWS V14.01,2013-10-07 17:43:00,
2013-10-07 12:48:00,74.1,48.3,30.23,NNE,22,6.7,6.7,40,0.00,,---,0.00,VWS V14.01,2013-10-07 17:48:00,
2013-10-07 12:53:00,74.3,47.1,30.23,North,0,1.7,1.7,38,0.00,,---,0.00,VWS V14.01,2013-10-07 17:53:00,
2013-10-07 12:58:00,74.4,47.2,30.22,NE,45,6.9,6.9,38,0.00,,---,0.00,VWS V14.01,2013-10-07 17:58:00,
2013-10-07 13:03:00,74.4,47.2,30.22,WNW,292,2.2,2.2,38,0.00,,---,0.00,VWS V14.01,2013-10-07 18:03:00,
2013-10-07 13:08:00,74.6,47.3,30.22,North,0,0.0,0.0,38,0.00,,---,0.00,VWS V14.01,2013-10-07 18:08:00,
2013-10-07 13:13:00,74.6,46.6,30.21,ENE,68,0.0,0.0,37,0.00,,---,0.00,VWS V14.01,2013-10-07 18:13:00,
2013-10-07 13:18:00,74.8,47.5,30.22,SE,135,0.0,0.0,38,0.00,,---,0.00,VWS V14.01,2013-10-07 18:18:00,
2013-10-07 13:23:00,74.6,47.3,30.22,ENE,68,1.7,1.7,38,0.00,,---,0.00,VWS V14.01,2013-10-07 18:23:00,
2013-10-07 13:28:00,74.8,47.5,30.22,North,0,0.0,0.0,38,0.00,,---,0.00,VWS V14.01,2013-10-07 18:28:00,
2013-10-07 13:33:00,75.2,47.9,30.21,WSW,248,0.0,0.0,38,0.00,,---,0.00,VWS V14.01,2013-10-07 18:33:00,
2013-10-07 13:38:00,75.3,47.3,30.21,NE,45,0.0,0.0,37,0.00,,---,0.00,VWS V14.01,2013-10-07 18:38:00,
2013-10-07 13:43:00,75.3,47.3,30.21,NNW,338,7.8,7.8,37,0.00,,---,0.00,VWS V14.01,2013-10-07 18:43:00,
2013-10-07 13:49:00,75.5,47.4,30.21,NNE,22,2.4,2.4,37,0.00,,---,0.00,VWS V14.01,2013-10-07 18:49:00,
2013-10-07 13:54:00,75.5,47.4,30.20,North,0,3.8,3.8,37,0.00,,---,0.00,VWS V14.01,2013-10-07 18:54:00,
2013-10-07 13:59:00,75.5,47.4,30.20,NE,45,5.8,5.8,37,0.00,,---,0.00,VWS V14.01,2013-10-07 18:59:00,
2013-10-07 14:04:00,75.7,47.6,30.20,NNW,338,0.0,0.0,37,0.00,,---,0.00,VWS V14.01,2013-10-07 19:04:00,
2013-10-07 14:09:00,75.5,47.4,30.20,WNW,292,1.3,1.3,37,0.00,,---,0.00,VWS V14.01,2013-10-07 19:09:00,
2013-10-07 14:14:00,75.9,47.8,30.20,ESE,112,0.0,0.0,37,0.00,,---,0.00,VWS V14.01,2013-10-07 19:14:00,
2013-10-07 14:19:00,75.9,47.8,30.19,WNW,292,0.0,0.0,37,0.00,,---,0.00,VWS V14.01,2013-10-07 19:19:00,
2013-10-07 14:24:00,75.9,47.1,30.19,SSE,158,0.0,4.2,36,0.00,,---,0.00,VWS V14.01,2013-10-07 19:24:00,
2013-10-07 14:29:00,76.1,47.2,30.19,NNE,22,1.3,1.3,36,0.00,,---,0.00,VWS V14.01,2013-10-07 19:29:00,
2013-10-07 14:34:00,76.1,47.2,30.19,West,270,0.0,4.2,36,0.00,,---,0.00,VWS V14.01,2013-10-07 19:34:00,
2013-10-07 14:39:00,76.1,46.5,30.19,SSE,158,0.0,0.0,35,0.00,,---,0.00,VWS V14.01,2013-10-07 19:39:00,
2013-10-07 14:44:00,76.1,46.5,30.18,ENE,68,0.0,1.5,35,0.00,,---,0.00,VWS V14.01,2013-10-07 19:44:00,
2013-10-07 14:49:00,76.4,46.8,30.18,NNE,22,2.0,2.0,35,0.00,,---,0.00,VWS V14.01,2013-10-07 19:49:00,
2013-10-07 14:54:00,76.6,47.7,30.18,NNW,338,0.0,0.0,36,0.00,,---,0.00,VWS V14.01,2013-10-07 19:54:00,
2013-10-07 14:59:00,76.6,46.9,30.18,ENE,68,0.0,0.0,35,0.00,,---,0.00,VWS V14.01,2013-10-07 19:59:00,
2013-10-07 15:04:00,76.6,47.7,30.17,West,270,0.0,0.0,36,0.00,,---,0.00,VWS V14.01,2013-10-07 20:04:00,
2013-10-07 15:09:00,77.0,47.3,30.17,NNE,22,3.5,3.5,35,0.00,,---,0.00,VWS V14.01,2013-10-07 20:09:00,
2013-10-07 15:14:00,77.0,47.3,30.17,NE,45,0.0,0.0,35,0.00,,---,0.00,VWS V14.01,2013-10-07 20:14:00,
2013-10-07 15:19:00,77.1,47.4,30.17,ENE,68,0.0,0.0,35,0.00,,---,0.00,VWS V14.01,2013-10-07 20:19:00,
2013-10-07 15:24:00,77.3,47.5,30.17,East,90,0.0,0.0,35,0.00,,---,0.00,VWS V14.01,2013-10-07 20:24:00,
2013-10-07 15:29:00,77.3,46.8,30.17,NNE,22,5.3,5.3,34,0.00,,---,0.00,VWS V14.01,2013-10-07 20:29:00,
2013-10-07 15:34:00,77.5,47.7,30.17,NE,45,0.0,0.0,35,0.00,,---,0.00,VWS V14.01,2013-10-07 20:34:00,
2013-10-07 15:39:00,77.3,47.5,30.17,North,0,1.3,1.3,35,0.00,,---,0.00,VWS V14.01,2013-10-07 20:39:00,
2013-10-07 15:44:00,77.9,47.3,30.16,North,0,0.0,0.0,34,0.00,,---,0.00,VWS V14.01,2013-10-07 20:44:00,
2013-10-07 15:49:00,78.2,47.6,30.16,NNE,22,0.0,0.0,34,0.00,,---,0.00,VWS V14.01,2013-10-07 20:49:00,
2013-10-07 15:54:00,78.2,47.6,30.16,NW,315,0.0,0.0,34,0.00,,---,0.00,VWS V14.01,2013-10-07 20:54:00,
2013-10-07 15:59:00,78.2,47.6,30.16,NNW,338,0.0,0.0,34,0.00,,---,0.00,VWS V14.01,2013-10-07 20:59:00,
2013-10-07 16:04:00,78.0,46.6,30.16,NNE,22,0.0,0.0,33,0.00,,---,0.00,VWS V14.01,2013-10-07 21:04:00,
2013-10-07 16:09:00,78.0,46.6,30.15,NW,315,0.0,0.0,33,0.00,,---,0.00,VWS V14.01,2013-10-07 21:09:00,
2013-10-07 16:14:00,78.2,46.8,30.16,East,90,0.0,0.0,33,0.00,,---,0.00,VWS V14.01,2013-10-07 21:14:00,
2013-10-07 16:19:00,78.0,46.6,30.15,NNW,338,0.0,0.0,33,0.00,,---,0.00,VWS V14.01,2013-10-07 21:19:00,
2013-10-07 16:25:00,78.2,46.8,30.15,ENE,68,0.0,0.0,33,0.00,,---,0.00,VWS V14.01,2013-10-07 21:25:00,
2013-10-07 16:30:00,78.2,46.8,30.15,NNW,338,2.4,2.4,33,0.00,,---,0.00,VWS V14.01,2013-10-07 21:30:00,
2013-10-07 16:35:00,78.2,46.0,30.15,WNW,292,0.0,0.0,32,0.00,,---,0.00,VWS V14.01,2013-10-07 21:35:00,
2013-10-07 16:40:00,78.0,45.8,30.15,North,0,0.0,0.0,32,0.00,,---,0.00,VWS V14.01,2013-10-07 21:40:00,
2013-10-07 16:45:00,78.2,46.8,30.15,NNE,22,0.0,0.0,33,0.00,,---,0.00,VWS V14.01,2013-10-07 21:45:00,
2013-10-07 16:50:00,78.0,46.6,30.15,North,0,0.0,3.1,33,0.00,,---,0.00,VWS V14.01,2013-10-07 21:50:00,
2013-10-07 16:55:00,78.2,46.0,30.14,NNE,22,1.5,1.5,32,0.00,,---,0.00,VWS V14.01,2013-10-07 21:55:00,
2013-10-07 17:00:00,78.2,46.0,30.14,SW,225,0.0,0.0,32,0.00,,---,0.00,VWS V14.01,2013-10-07 22:00:00,
2013-10-07 17:05:00,78.2,46.0,30.15,NNE,22,0.0,0.0,32,0.00,,---,0.00,VWS V14.01,2013-10-07 22:05:00,
2013-10-07 17:10:00,78.8,46.5,30.14,WNW,292,0.0,0.0,32,0.00,,---,0.00,VWS V14.01,2013-10-07 22:10:00,
2013-10-07 17:15:00,78.9,46.6,30.14,NE,45,0.0,0.0,32,0.00,,---,0.00,VWS V14.01,2013-10-07 22:15:00,
2013-10-07 17:20:00,79.3,47.7,30.15,North,0,0.0,0.0,33,0.00,,---,0.00,VWS V14.01,2013-10-07 22:20:00,
2013-10-07 17:25:00,80.2,48.5,30.14,WSW,248,0.0,0.0,33,0.00,,---,0.00,VWS V14.01,2013-10-07 22:25:00,
2013-10-07 17:30:00,80.9,49.1,30.14,NE,45,0.0,0.0,33,0.00,,---,0.00,VWS V14.01,2013-10-07 22:30:00,
2013-10-07 17:35:00,80.6,48.9,30.14,NNW,338,0.0,0.0,33,0.00,,---,0.00,VWS V14.01,2013-10-07 22:35:00,
2013-10-07 17:40:00,79.7,48.1,30.15,WNW,292,0.0,0.0,33,0.00,,---,0.00,VWS V14.01,2013-10-07 22:40:00,
2013-10-07 17:45:00,79.1,47.6,30.15,WSW,248,0.0,0.0,33,0.00,,---,0.00,VWS V14.01,2013-10-07 22:45:00,
2013-10-07 17:50:00,78.4,47.0,30.15,West,270,0.0,0.0,33,0.00,,---,0.00,VWS V14.01,2013-10-07 22:50:00,
2013-10-07 17:55:00,77.9,46.5,30.15,North,0,0.0,0.0,33,0.00,,---,0.00,VWS V14.01,2013-10-07 22:55:00,
2013-10-07 18:00:00,77.7,47.9,30.15,NNE,22,0.0,0.0,35,0.00,,---,0.00,VWS V14.01,2013-10-07 23:00:00,
2013-10-07 18:05:00,77.0,48.0,30.15,NNE,22,0.0,0.0,36,0.00,,---,0.00,VWS V14.01,2013-10-07 23:05:00,
2013-10-07 18:10:00,76.6,47.7,30.15,NNE,22,0.0,0.0,36,0.00,,---,0.00,VWS V14.01,2013-10-07 23:10:00,
2013-10-07 18:15:00,76.1,48.0,30.15,North,0,0.0,0.0,37,0.00,,---,0.00,VWS V14.01,2013-10-07 23:15:00,
2013-10-07 18:20:00,75.7,48.3,30.15,NNW,338,0.0,0.0,38,0.00,,---,0.00,VWS V14.01,2013-10-07 23:20:00,
2013-10-07 18:25:00,75.3,48.7,30.15,NNW,338,0.0,0.0,39,0.00,,---,0.00,VWS V14.01,2013-10-07 23:25:00,
2013-10-07 18:30:00,74.8,49.5,30.15,NNW,338,0.0,0.0,41,0.00,,---,0.00,VWS V14.01,2013-10-07 23:30:00,
2013-10-07 18:35:00,74.4,49.8,30.15,NNW,338,0.0,0.0,42,0.00,,---,0.00,VWS V14.01,2013-10-07 23:35:00,
2013-10-07 18:41:00,73.9,50.6,30.15,NNW,338,0.0,0.0,44,0.00,,---,0.00,VWS V14.01,2013-10-07 23:41:00,
2013-10-07 18:46:00,73.5,50.9,30.16,NNW,338,0.0,0.0,45,0.00,,---,0.00,VWS V14.01,2013-10-07 23:46:00,
2013-10-07 18:51:00,73.2,51.2,30.15,NNW,338,0.0,0.0,46,0.00,,---,0.00,VWS V14.01,2013-10-07 23:51:00,
2013-10-07 18:56:00,72.6,50.7,30.15,NNW,338,0.0,0.0,46,0.00,,---,0.00,VWS V14.01,2013-10-07 23:56:00,
2013-10-07 19:01:00,72.3,51.5,30.15,NNW,338,0.0,0.0,48,0.00,,---,0.00,VWS V14.01,2013-10-08 00:01:00,
2013-10-07 19:06:00,71.7,51.5,30.15,NNW,338,0.0,0.0,49,0.00,,---,0.00,VWS V14.01,2013-10-08 00:06:00,
2013-10-07 19:11:00,71.2,51.6,30.15,NNW,338,0.0,0.0,50,0.00,,---,0.00,VWS V14.01,2013-10-08 00:11:00,
2013-10-07 19:16:00,70.8,51.3,30.15,NNW,338,0.0,0.0,50,0.00,,---,0.00,VWS V14.01,2013-10-08 00:16:00,
2013-10-07 19:21:00,70.5,51.5,30.15,NNW,338,0.0,0.0,51,0.00,,---,0.00,VWS V14.01,2013-10-08 00:21:00,
2013-10-07 19:26:00,70.1,51.7,30.15,NNW,338,0.0,0.0,52,0.00,,---,0.00,VWS V14.01,2013-10-08 00:26:00,
2013-10-07 19:31:00,69.6,51.7,30.15,NNW,338,0.0,0.0,53,0.00,,---,0.00,VWS V14.01,2013-10-08 00:31:00,
2013-10-07 19:36:00,69.2,51.9,30.15,NNW,338,0.0,0.0,54,0.00,,---,0.00,VWS V14.01,2013-10-08 00:36:00,
2013-10-07 19:41:00,68.9,51.6,30.15,NNW,338,0.0,0.0,54,0.00,,---,0.00,VWS V14.01,2013-10-08 00:41:00,
2013-10-07 19:46:00,68.7,51.9,30.15,NNW,338,0.0,0.0,55,0.00,,---,0.00,VWS V14.01,2013-10-08 00:46:00,
2013-10-07 19:51:00,68.3,52.0,30.16,NNW,338,0.0,0.0,56,0.00,,---,0.00,VWS V14.01,2013-10-08 00:51:00,
2013-10-07 19:56:00,68.1,51.8,30.16,NNW,338,0.0,0.0,56,0.00,,---,0.00,VWS V14.01,2013-10-08 00:56:00,
2013-10-07 20:01:00,68.0,52.2,30.16,NNW,338,0.0,0.0,57,0.00,,---,0.00,VWS V14.01,2013-10-08 01:01:00,
2013-10-07 20:06:00,67.6,51.8,30.16,NNW,338,0.0,0.0,57,0.00,,---,0.00,VWS V14.01,2013-10-08 01:06:00,
2013-10-07 20:11:00,67.4,51.7,30.16,NNW,338,0.0,0.0,57,0.00,,---,0.00,VWS V14.01,2013-10-08 01:11:00,
2013-10-07 20:16:00,67.1,51.4,30.17,NNW,338,0.0,0.0,57,0.00,,---,0.00,VWS V14.01,2013-10-08 01:16:00,
2013-10-07 20:21:00,66.9,52.1,30.17,NNW,338,0.0,0.0,59,0.00,,---,0.00,VWS V14.01,2013-10-08 01:21:00,
2013-10-07 20:26:00,66.5,52.2,30.17,NNW,338,0.0,0.0,60,0.00,,---,0.00,VWS V14.01,2013-10-08 01:26:00,
2013-10-07 20:31:00,66.5,52.2,30.17,NNW,338,0.0,0.0,60,0.00,,---,0.00,VWS V14.01,2013-10-08 01:31:00,
2013-10-07 20:36:00,66.0,51.7,30.17,NNW,338,0.0,0.0,60,0.00,,---,0.00,VWS V14.01,2013-10-08 01:36:00,
2013-10-07 20:41:00,65.8,52.0,30.17,NNW,338,0.0,0.0,61,0.00,,---,0.00,VWS V14.01,2013-10-08 01:41:00,
2013-10-07 20:46:00,65.6,51.8,30.17,NNW,338,0.0,0.0,61,0.00,,---,0.00,VWS V14.01,2013-10-08 01:46:00,
2013-10-07 20:51:00,65.6,52.2,30.17,NNW,338,0.0,0.0,62,0.00,,---,0.00,VWS V14.01,2013-10-08 01:51:00,
2013-10-07 20:56:00,65.3,52.4,30.17,NNW,338,0.0,0.0,63,0.00,,---,0.00,VWS V14.01,2013-10-08 01:56:00,
2013-10-07 21:02:00,65.3,52.4,30.18,NNW,338,0.0,0.0,63,0.00,,---,0.00,VWS V14.01,2013-10-08 02:02:00,
2013-10-07 21:07:00,65.1,52.6,30.18,NNW,338,0.0,0.0,64,0.00,,---,0.00,VWS V14.01,2013-10-08 02:07:00,
2013-10-07 21:12:00,64.9,52.9,30.18,NNW,338,0.0,0.0,65,0.00,,---,0.00,VWS V14.01,2013-10-08 02:12:00,
2013-10-07 21:17:00,64.7,52.7,30.18,NNW,338,0.0,0.0,65,0.00,,---,0.00,VWS V14.01,2013-10-08 02:17:00,
2013-10-07 21:22:00,64.5,52.9,30.18,NNW,338,0.0,0.0,66,0.00,,---,0.00,VWS V14.01,2013-10-08 02:22:00,
2013-10-07 21:27:00,64.4,52.8,30.19,NNW,338,0.0,0.0,66,0.00,,---,0.00,VWS V14.01,2013-10-08 02:27:00,
2013-10-07 21:32:00,64.2,53.0,30.19,NNW,338,0.0,0.0,67,0.00,,---,0.00,VWS V14.01,2013-10-08 02:32:00,
2013-10-07 21:37:00,64.0,52.8,30.19,NNW,338,0.0,0.0,67,0.00,,---,0.00,VWS V14.01,2013-10-08 02:37:00,
2013-10-07 21:42:00,64.0,53.2,30.19,NNW,338,0.0,0.0,68,0.00,,---,0.00,VWS V14.01,2013-10-08 02:42:00,
2013-10-07 21:47:00,64.0,53.2,30.19,NNW,338,0.0,0.0,68,0.00,,---,0.00,VWS V14.01,2013-10-08 02:47:00,
2013-10-07 21:52:00,64.0,53.6,30.19,NNW,338,0.0,0.0,69,0.00,,---,0.00,VWS V14.01,2013-10-08 02:52:00,
2013-10-07 21:57:00,63.8,53.5,30.19,NNW,338,0.0,0.0,69,0.00,,---,0.00,VWS V14.01,2013-10-08 02:57:00,
2013-10-07 22:02:00,63.5,52.8,30.19,North,0,0.0,0.0,68,0.00,,---,0.00,VWS V14.01,2013-10-08 03:02:00,
2013-10-07 22:07:00,63.3,52.6,30.19,North,0,0.0,0.0,68,0.00,,---,0.00,VWS V14.01,2013-10-08 03:07:00,
2013-10-07 22:12:00,63.3,52.6,30.19,North,0,0.0,0.0,68,0.00,,---,0.00,VWS V14.01,2013-10-08 03:12:00,
2013-10-07 22:17:00,62.9,52.2,30.19,North,0,0.0,0.0,68,0.00,,---,0.00,VWS V14.01,2013-10-08 03:17:00,
2013-10-07 22:22:00,62.9,52.2,30.19,North,0,0.0,0.0,68,0.00,,---,0.00,VWS V14.01,2013-10-08 03:22:00,
2013-10-07 22:27:00,62.7,52.0,30.19,North,0,0.0,0.0,68,0.00,,---,0.00,VWS V14.01,2013-10-08 03:27:00,
2013-10-07 22:32:00,62.2,51.5,30.19,North,0,0.0,0.0,68,0.00,,---,0.00,VWS V14.01,2013-10-08 03:32:00,
2013-10-07 22:37:00,62.2,51.5,30.19,NNE,22,0.0,0.0,68,0.00,,---,0.00,VWS V14.01,2013-10-08 03:37:00,
2013-10-07 22:42:00,62.0,51.3,30.20,NNE,22,0.0,0.0,68,0.00,,---,0.00,VWS V14.01,2013-10-08 03:42:00,
2013-10-07 22:47:00,61.8,51.1,30.20,NNE,22,0.0,0.0,68,0.00,,---,0.00,VWS V14.01,2013-10-08 03:47:00,
2013-10-07 22:52:00,61.8,51.5,30.20,NNE,22,0.0,0.0,69,0.00,,---,0.00,VWS V14.01,2013-10-08 03:52:00,
2013-10-07 22:57:00,61.7,51.4,30.19,NNE,22,0.0,0.0,69,0.00,,---,0.00,VWS V14.01,2013-10-08 03:57:00,
2013-10-07 23:01:00,61.7,51.4,30.19,NNE,22,0.0,0.0,69,0.00,,---,0.00,VWS V14.01,2013-10-08 04:01:00,
2013-10-07 23:02:00,61.7,51.4,30.19,NNE,22,0.0,0.0,69,0.00,,---,0.00,VWS V14.01,2013-10-08 04:02:00,
2013-10-07 23:03:00,61.7,51.4,30.19,NNE,22,0.0,0.0,69,0.00,,---,0.00,VWS V14.01,2013-10-08 04:03:00,
2013-10-07 23:08:00,61.5,51.2,30.19,NNE,22,0.0,0.0,69,0.00,,---,0.00,VWS V14.01,2013-10-08 04:08:00,
2013-10-07 23:13:00,61.5,51.2,30.19,NNE,22,0.0,0.0,69,0.00,,---,0.00,VWS V14.01,2013-10-08 04:13:00,
2013-10-07 23:18:00,61.5,51.6,30.19,NNE,22,0.0,0.0,70,0.00,,---,0.00,VWS V14.01,2013-10-08 04:18:00,
2013-10-07 23:23:00,61.5,52.0,30.19,NNE,22,0.0,0.0,71,0.00,,---,0.00,VWS V14.01,2013-10-08 04:23:00,
2013-10-07 23:28:00,61.1,51.2,30.19,NNE,22,0.0,0.0,70,0.00,,---,0.00,VWS V14.01,2013-10-08 04:28:00,
2013-10-07 23:33:00,61.1,51.2,30.18,NNE,22,0.0,0.0,70,0.00,,---,0.00,VWS V14.01,2013-10-08 04:33:00,
2013-10-07 23:38:00,60.9,51.1,30.18,NNE,22,0.0,0.0,70,0.00,,---,0.00,VWS V14.01,2013-10-08 04:38:00,
2013-10-07 23:43:00,60.9,51.5,30.18,NNE,22,0.0,0.0,71,0.00,,---,0.00,VWS V14.01,2013-10-08 04:43:00,
2013-10-07 23:49:00,60.9,51.5,30.18,NNE,22,0.0,0.0,71,0.00,,---,0.00,VWS V14.01,2013-10-08 04:49:00,
2013-10-07 23:54:00,60.9,51.5,30.18,NNE,22,0.0,0.0,71,0.00,,---,0.00,VWS V14.01,2013-10-08 04:54:00,
2013-10-07 23:59:00,60.8,51.3,30.18,NNE,22,0.0,0.0,71,0.00,,---,0.00,VWS V14.01,2013-10-08 04:59:00,